#timestamp,LO_Frequency,Hit,StdDev 
1509008415.7,286047005.0,P
1509008435.5,286047004.5,N
1509008455.3,286047002.6,N
1509008475.2,286047005.1,N
1509008495.0,286047012.4,Y
1509008495.9,286047012.4,P
1509008515.8,286047009.6,N
1509008535.6,286047009.3,N
1509008555.4,286047007.4,N
1509008575.3,286047008.0,N
1509008595.1,286047007.3,N
1509008596.0,286047007.3,N
1509008615.8,286047006.5,N
1509008635.7,286047009.2,Y
1509008655.5,286046997.4,P
1509008675.3,286046995.3,N
1509008695.2,286046998.8,N
1509008715.0,286046995.8,N
1509008715.9,286046995.8,N
1509008735.7,286046991.8,N
1509008755.6,286046992.1,N
1509008775.4,286046993.6,N
1509008795.2,286046994.8,N
1509008815.1,286046994.1,N
1509008816.0,286046994.1,N
1509008835.8,286046999.6,N
1509008855.6,286046995.8,N
1509008875.5,286046997.3,N
1509008895.3,286046996.9,N
1509008915.1,286046997.1,N
1509008935.9,286046994.0,N
1509008955.7,286046997.3,N
1509008975.5,286046999.0,N
1509008995.4,286047001.8,N
1509009015.2,286047001.3,N
1509009035.0,286047002.1,N
1509009036.0,286047002.1,N
1509009055.8,286046998.3,N
1509009075.6,286046998.3,N
1509009095.5,286046997.4,N
1509009115.3,286046998.9,N
1509009135.1,286046999.8,N
1509009155.9,286047002.0,N
1509009175.7,286047000.4,N
1509009195.5,286047001.1,N
1509009215.4,286047001.1,N
1509009235.2,286046997.5,N
1509009255.0,286046996.6,N
1509009255.9,286046996.6,N
1509009275.8,286047001.0,N
1509009295.6,286046998.7,N
1509009315.4,286046999.2,N
1509009335.3,286046999.0,N
1509009355.1,286046998.9,N
1509009356.0,286046998.9,N
1509009375.8,286047003.3,N
1509009395.7,286047007.7,Y
1509009415.5,286047006.2,P
1509009435.3,286047005.3,N
1509009455.2,286047009.0,N
1509009475.0,286047007.6,N
1509009475.9,286047007.6,N
1509009495.7,286047005.4,N
1509009515.6,286047005.5,N
1509009535.4,286047003.2,N
1509009555.2,286047001.9,N
1509009575.1,286047003.6,N
1509009576.0,286047003.6,N
1509009595.8,286047007.4,N
1509009615.7,286047004.5,N
1509009635.5,286047002.6,N
1509009655.3,286047000.4,N
1509009675.2,286047001.2,N
1509009695.9,286047001.0,N
1509009715.7,286046995.2,N
1509009735.6,286046999.0,N
1509009755.4,286047000.0,N
1509009775.2,286046998.5,N
1509009795.1,286046997.3,N
1509009796.0,286046997.3,N
1509009815.8,286046997.8,N
1509009835.6,286046997.0,N
1509009855.5,286046997.6,N
1509009875.3,286046997.9,N
1509009895.1,286047000.7,N
1509009915.9,286047000.0,N
1509009935.7,286047000.5,N
1509009955.5,286046999.3,N
1509009975.4,286046994.5,N
1509009995.2,286046995.6,N
1509010015.0,286046995.1,N
1509010015.9,286046995.1,N
1509010035.8,286046993.3,N
1509010055.6,286046999.3,N
1509010075.4,286046993.4,N
1509010095.3,286046994.6,N
1509010115.1,286046997.5,N
1509010135.8,286046996.7,N
1509010155.7,286046997.7,N
1509010175.5,286046994.9,N
1509010195.3,286046997.9,N
1509010215.2,286046995.4,N
1509010235.0,286047000.5,N
1509010235.9,286047000.5,N
1509010255.7,286047001.2,N
1509010275.6,286046996.5,N
1509010295.4,286046996.9,N
1509010315.2,286046996.3,N
1509010335.1,286046992.1,Y
1509010336.0,286046992.1,P
1509010355.8,286047000.5,N
1509010375.7,286046997.6,N
1509010395.5,286047002.6,N
1509010415.3,286047000.4,N
1509010435.2,286046998.7,N
1509010455.9,286046996.6,N
1509010475.7,286046995.7,N
1509010495.6,286046993.6,N
1509010515.4,286046993.9,N
1509010535.2,286046994.3,N
1509010555.1,286046995.1,N
1509010556.0,286046995.1,N
1509010575.8,286046996.0,N
1509010595.6,286046996.6,N
1509010615.5,286047001.8,N
1509010635.3,286047003.3,N
1509010655.1,286047001.6,N
1509010675.9,286047002.6,N
1509010695.7,286047003.9,N
1509010715.5,286046999.1,N
1509010735.4,286046997.5,N
1509010755.2,286046997.7,N
1509010775.0,286046997.6,N
1509010776.0,286046997.6,N
1509010795.8,286046997.4,N
1509010815.6,286046997.5,N
1509010835.4,286046996.9,N
1509010855.3,286046995.0,N
1509010875.1,286046994.5,N
1509010895.9,286046994.2,N
1509010915.7,286046993.5,N
1509010935.5,286046997.5,N
1509010955.4,286046997.5,N
1509010975.2,286046994.5,N
1509010995.0,286046994.1,N
1509010995.9,286046994.1,N
1509011015.8,286046993.7,N
1509011035.6,286046997.8,N
1509011055.4,286046995.3,N
1509011075.3,286046994.9,N
1509011095.1,286046996.7,N
1509011096.0,286046996.7,N
1509011115.8,286046993.6,N
1509011135.7,286046992.7,N
1509011155.5,286046990.5,Y
1509011175.3,286046997.3,P
1509011195.2,286047001.0,P
1509011215.0,286047003.0,N
1509011215.9,286047003.0,N
1509011235.7,286047005.9,N
1509011255.6,286047003.4,N
1509011275.4,286047002.0,N
1509011295.2,286046999.0,N
1509011315.1,286046995.2,N
1509011335.8,286046996.0,N
1509011355.7,286046998.2,N
1509011375.5,286047002.5,N
1509011395.3,286047001.4,N
1509011415.2,286046999.1,N
1509011435.0,286046997.3,N
1509011435.9,286046997.3,N
1509011455.8,286047001.2,N
1509011475.6,286047002.2,N
1509011495.4,286047002.2,N
1509011515.3,286047002.5,N
1509011535.1,286047002.6,N
1509011536.0,286047002.6,N
1509011555.8,286046997.7,N
1509011575.7,286046998.4,N
1509011595.5,286046997.3,N
1509011615.3,286046999.0,N
1509011635.2,286047000.8,N
1509011655.9,286046998.2,N
1509011675.7,286046998.9,N
1509011695.6,286047001.0,N
1509011715.4,286046999.9,N
1509011735.2,286047001.2,N
1509011755.1,286047001.5,N
1509011756.0,286047001.5,N
1509011775.8,286046997.8,N
1509011795.6,286046999.5,N
1509011815.5,286047000.7,N
1509011835.3,286046999.3,N
1509011855.1,286047001.2,N
1509011875.9,286047000.7,N
1509011895.7,286046999.1,N
1509011915.5,286047000.8,N
1509011935.4,286047000.4,N
1509011955.2,286046996.7,N
1509011975.1,286046994.1,Y
1509011976.0,286046994.1,P
1509011995.8,286046995.5,N
